Simultaneous Nadir Overpasses (SNOs) Predictions

Prediction of SNOs between AQUA and METOP-A Satellite Orbit:

Table of predicted SNOs for the next 14.0 days since TLE Epoch: 2/23/2018
Index Date (AQUA) Time (AQUA) Lat,Lon (AQUA) SZA (AQUA ) Date (METOP-A) Time (METOP-A) Lat,Lon (METOP-A) SZA (METOP-A ) Distance(km) Time Diff (sec)
1 02/25/2018 18:24:37 74.20,-102.67 83.24 02/25/2018 18:24:02 74.21,-102.59 83.25 2.74 35
2 02/25/2018 19:14:04 -74.26, 64.84 96.72 02/25/2018 19:14:42 -74.28, 64.91 96.71 3.07 38
3 02/28/2018 13:58:53 74.17, -36.17 82.15 02/28/2018 13:58:21 74.17, -36.28 82.16 3.32 32
4 02/28/2018 14:48:21 -74.27, 131.24 97.76 02/28/2018 14:49:01 -74.24, 131.23 97.80 3.58 40
5 03/03/2018 09:33:09 74.20, 30.21 81.10 03/03/2018 09:32:38 74.18, 30.16 81.09 2.95 31
6 03/03/2018 10:22:36 -74.24,-162.26 98.87 03/03/2018 10:23:18 -74.25,-162.33 98.87 2.40 42
7 03/06/2018 05:07:25 74.18, 96.69 79.99 03/06/2018 05:06:56 74.19, 96.58 80.00 3.14 29
8 03/06/2018 05:56:53 -74.27, -95.88 99.93 03/06/2018 05:57:36 -74.27, -95.89 99.95 0.74 43
9 03/09/2018 00:41:42 74.22, 163.03 78.93 03/09/2018 00:41:13 74.24, 163.13 78.95 3.51 29
10 03/09/2018 01:31:09 -74.26, -29.41 101.05 03/09/2018 01:31:54 -74.28, -29.45 101.04 2.58 45




NCC Satellite Simultaneous Nadir Overpasses (SNOs) Prediction Service
